User: anonymous   Login
Location: Holyhead Bay
(53.3667°N, 4.6667°W)
Time: 12:56:29
(UTC+00:00)
Language:

H-2A R/B - Orbit

View from above orbital plane
View from above orbital plane
View from above satellite
View from above satellite

Ground track
Ground track

The orbit data is extracted from the following two-line orbital elements,

1 28932U 06002B   21061.47628910  .00000599  00000-0  60709-4 0  9998
2 28932  98.3324  72.2554 0088038 196.7314 320.6051 14.92458774819622
Epoch (UTC): 02 March 2021 11:25:51
Eccentricity: 0.0088038
inclination: 98.3324°
perigee height: 529 km
apogee height: 651 km
right ascension of ascending node: 72.2554°
argument of perigee: 196.7314°
revolutions per day: 14.92458774
mean anomaly at epoch: 320.6051°
orbit number at epoch: 81962

The dashed part of the orbit path shows where the satellite is in the earth's shadow,  

DLR